Terug naar catalogus

DELTA 1 DEB

ActiefSSO
NORAD 7084·DEBRIS·🇺🇸 United States

Gelanceerd Nov 6, 1973 vanaf Vandenberg Space Force Base

Loading…

Volgende Passages (komende 24 uur)

TLE

VersSource: Space-Track

Epoch: Sep 14, 2026, 07:33 UTC

1 07084U 73086CC  26257.31475530 -.00000020  00000-0  19483-3 0  9994
2 07084 101.8647 197.2980 0152981 185.6082 330.0173 12.25199025363195

Volg DELTA 1 DEB in realtime met AllMySat

Download on the App Store